Ming Zhou 56 — BLAC4 — position and weather

sailwx.info

Track history (hours):
 
Tides and Currents Weather Stations Pressure Air Temp Water Temp Dewpoint Dewpoint Depression Visibility Wind Speed Wind Dir Waves Ship Positions

Ming Zhou 56

Last reported at 2014-Jul-23 07:29 UTC. Time now 2014-Jul-24 10:42 UTC.
Position N 29°55' E 122°02'.

Length 123 m; draft 6.6 m.

Type: Cargo ship. MMSI: 412165000.

Date/timePositionNaut miles runAvg speedWind from/ knotsBaromVisibWave heightAir tempDewpointWater temp
2014-Jul-23 07:29N 29°55' E 122°02'2 2.1
2014-Jul-23 06:33N 29°53' E 122°03'0 0.0
2014-Jul-23 05:32N 29°53' E 122°03'0 0.0
2014-Jul-23 04:32N 29°53' E 122°03'0 0.0
2014-Jul-23 03:33N 29°53' E 122°03'0 0.0
2014-Jul-23 02:32N 29°53' E 122°03'0 0.0
2014-Jul-23 01:32N 29°53' E 122°03'0 0.0
2014-Jul-23 00:26N 29°53' E 122°03'0 0.0
2014-Jul-22 23:32N 29°53' E 122°03'0 0.0
2014-Jul-22 22:32N 29°53' E 122°03'0 0.0
2014-Jul-22 21:33N 29°53' E 122°03'0 0.0
2014-Jul-22 20:32N 29°53' E 122°03'0 0.0
2014-Jul-22 19:26N 29°53' E 122°03'3 3.9
2014-Jul-22 18:33N 29°55' E 122°06'6 5.8
2014-Jul-22 17:33N 29°55' E 122°13'0 0.0
2014-Jul-22 16:32N 29°55' E 122°13'0 0.0
2014-Jul-22 15:26N 29°55' E 122°13'0 0.0
2014-Jul-22 14:20N 29°55' E 122°13'0 0.1
2014-Jul-22 13:14N 29°55' E 122°13'0 0.1
2014-Jul-22 12:33N 29°55' E 122°13'0 0.1
2014-Jul-22 11:26N 29°55' E 122°13'0 0.0
2014-Jul-22 10:32N 29°55' E 122°13'4 3.6
2014-Jul-22 09:33N 29°51' E 122°12'1111.0
2014-Jul-22 08:33N 29°46' E 122°00'0 0.1
2014-Jul-22 07:32N 29°46' E 122°00'0 0.0
2014-Jul-22 06:15N 29°46' E 122°00'1 1.7
2014-Jul-22 05:25N 29°47' E 122°02'1112.3
2014-Jul-22 04:33N 29°53' E 122°12'2 1.4
2014-Jul-22 03:23N 29°54' E 122°13'0 0.1
2014-Jul-22 02:29N 29°54' E 122°13'3 3.6
2014-Jul-22 01:33N 29°55' E 122°09'1010.4
2014-Jul-22 00:33N 29°59' E 121°58'1310.3
2014-Jul-21 23:17N 30°11' E 121°51'11 0.4
2014-Jul-20 18:13N 29°60' E 121°49'1 0.7
2014-Jul-20 16:32N 29°59' E 121°50'0 0.0
2014-Jul-20 15:14N 29°59' E 121°50'1 0.3
2014-Jul-20 13:24N 29°59' E 121°50'0 0.0
2014-Jul-20 05:27N 29°59' E 121°50'2 2.7
2014-Jul-20 04:32N 29°57' E 121°50'0 0.0
2014-Jul-20 03:32N 29°57' E 121°50'0 0.0
2014-Jul-20 02:32N 29°57' E 121°50'0 0.0
2014-Jul-20 01:32N 29°57' E 121°50'0 0.0
2014-Jul-20 00:26N 29°57' E 121°50'0 0.0
2014-Jul-19 23:32N 29°57' E 121°50'0 0.0
2014-Jul-19 22:26N 29°57' E 121°50'0 0.0
2014-Jul-19 21:33N 29°57' E 121°50'1 0.0
2014-Jul-18 13:33N 29°58' E 121°50'3 2.6
2014-Jul-18 12:32N 29°56' E 121°52'0 0.0
2014-Jul-18 10:32N 29°56' E 121°52'0 0.0
2014-Jul-18 08:08N 29°56' E 121°52'0 0.0
2014-Jul-18 05:32N 29°56' E 121°52'0 0.0
2014-Jul-18 04:32N 29°56' E 121°52'0 0.0
2014-Jul-18 03:20N 29°56' E 121°52'0 0.0
2014-Jul-18 02:32N 29°56' E 121°52'1 0.4
2014-Jul-18 00:33N 29°57' E 121°52'0 0.0
2014-Jul-15 23:33N 29°57' E 121°52'3 0.4
2014-Jul-15 16:16N 29°56' E 121°55'4 5.8
2014-Jul-15 15:33N 29°57' E 121°51'0 0.0
2014-Jul-15 14:32N 29°57' E 121°51'0 0.0
2014-Jul-15 13:32N 29°57' E 121°51'0 0.0
2014-Jul-15 12:20N 29°57' E 121°51'0 0.0
2014-Jul-15 11:20N 29°57' E 121°51'0 0.0
2014-Jul-15 10:32N 29°57' E 121°51'0 0.0
2014-Jul-15 09:32N 29°57' E 121°51'0 0.0
2014-Jul-15 08:32N 29°57' E 121°51'2 1.7
2014-Jul-15 07:33N 29°57' E 121°52'1 0.0
2014-Jul-14 02:33N 29°56' E 121°52'0 0.0
2014-Jul-14 00:29N 29°56' E 121°52'0 0.0
2014-Jul-13 23:29N 29°56' E 121°52'0 0.0
2014-Jul-13 22:23N 29°56' E 121°52'0 0.0
2014-Jul-13 20:29N 29°56' E 121°52'0 0.1
2014-Jul-13 18:33N 29°56' E 121°52'  
Track history (hours):
 
Tides and Currents Weather Stations Pressure Air Temp Water Temp Dewpoint Dewpoint Depression Visibility Wind Speed Wind Dir Waves Ship Positions

Ming Zhou 56

Last reported at 2014-Jul-23 07:29 UTC. Time now 2014-Jul-24 10:42 UTC.
Position N 29°55' E 122°02'.

Length 123 m; draft 6.6 m.

Type: Cargo ship. MMSI: 412165000.

Date/timePositionNaut miles runAvg speedWind from/ knotsBaromVisibWave heightAir tempDewpointWater temp
2014-Jul-23 07:29N 29°55' E 122°02'2 2.1
2014-Jul-23 06:33N 29°53' E 122°03'0 0.0
2014-Jul-23 05:32N 29°53' E 122°03'0 0.0
2014-Jul-23 04:32N 29°53' E 122°03'0 0.0
2014-Jul-23 03:33N 29°53' E 122°03'0 0.0
2014-Jul-23 02:32N 29°53' E 122°03'0 0.0
2014-Jul-23 01:32N 29°53' E 122°03'0 0.0
2014-Jul-23 00:26N 29°53' E 122°03'0 0.0
2014-Jul-22 23:32N 29°53' E 122°03'0 0.0
2014-Jul-22 22:32N 29°53' E 122°03'0 0.0
2014-Jul-22 21:33N 29°53' E 122°03'0 0.0
2014-Jul-22 20:32N 29°53' E 122°03'0 0.0
2014-Jul-22 19:26N 29°53' E 122°03'3 3.9
2014-Jul-22 18:33N 29°55' E 122°06'6 5.8
2014-Jul-22 17:33N 29°55' E 122°13'0 0.0
2014-Jul-22 16:32N 29°55' E 122°13'0 0.0
2014-Jul-22 15:26N 29°55' E 122°13'0 0.0
2014-Jul-22 14:20N 29°55' E 122°13'0 0.1
2014-Jul-22 13:14N 29°55' E 122°13'0 0.1
2014-Jul-22 12:33N 29°55' E 122°13'0 0.1
2014-Jul-22 11:26N 29°55' E 122°13'0 0.0
2014-Jul-22 10:32N 29°55' E 122°13'4 3.6
2014-Jul-22 09:33N 29°51' E 122°12'1111.0
2014-Jul-22 08:33N 29°46' E 122°00'0 0.1
2014-Jul-22 07:32N 29°46' E 122°00'0 0.0
2014-Jul-22 06:15N 29°46' E 122°00'1 1.7
2014-Jul-22 05:25N 29°47' E 122°02'1112.3
2014-Jul-22 04:33N 29°53' E 122°12'2 1.4
2014-Jul-22 03:23N 29°54' E 122°13'0 0.1
2014-Jul-22 02:29N 29°54' E 122°13'3 3.6
2014-Jul-22 01:33N 29°55' E 122°09'1010.4
2014-Jul-22 00:33N 29°59' E 121°58'1310.3
2014-Jul-21 23:17N 30°11' E 121°51'11 0.4
2014-Jul-20 18:13N 29°60' E 121°49'1 0.7
2014-Jul-20 16:32N 29°59' E 121°50'0 0.0
2014-Jul-20 15:14N 29°59' E 121°50'1 0.3
2014-Jul-20 13:24N 29°59' E 121°50'0 0.0
2014-Jul-20 05:27N 29°59' E 121°50'2 2.7
2014-Jul-20 04:32N 29°57' E 121°50'0 0.0
2014-Jul-20 03:32N 29°57' E 121°50'0 0.0
2014-Jul-20 02:32N 29°57' E 121°50'0 0.0
2014-Jul-20 01:32N 29°57' E 121°50'0 0.0
2014-Jul-20 00:26N 29°57' E 121°50'0 0.0
2014-Jul-19 23:32N 29°57' E 121°50'0 0.0
2014-Jul-19 22:26N 29°57' E 121°50'0 0.0
2014-Jul-19 21:33N 29°57' E 121°50'1 0.0
2014-Jul-18 13:33N 29°58' E 121°50'3 2.6
2014-Jul-18 12:32N 29°56' E 121°52'0 0.0
2014-Jul-18 10:32N 29°56' E 121°52'0 0.0
2014-Jul-18 08:08N 29°56' E 121°52'0 0.0
2014-Jul-18 05:32N 29°56' E 121°52'0 0.0
2014-Jul-18 04:32N 29°56' E 121°52'0 0.0
2014-Jul-18 03:20N 29°56' E 121°52'0 0.0
2014-Jul-18 02:32N 29°56' E 121°52'1 0.4
2014-Jul-18 00:33N 29°57' E 121°52'0 0.0
2014-Jul-15 23:33N 29°57' E 121°52'3 0.4
2014-Jul-15 16:16N 29°56' E 121°55'4 5.8
2014-Jul-15 15:33N 29°57' E 121°51'0 0.0
2014-Jul-15 14:32N 29°57' E 121°51'0 0.0
2014-Jul-15 13:32N 29°57' E 121°51'0 0.0
2014-Jul-15 12:20N 29°57' E 121°51'0 0.0
2014-Jul-15 11:20N 29°57' E 121°51'0 0.0
2014-Jul-15 10:32N 29°57' E 121°51'0 0.0
2014-Jul-15 09:32N 29°57' E 121°51'0 0.0
2014-Jul-15 08:32N 29°57' E 121°51'2 1.7
2014-Jul-15 07:33N 29°57' E 121°52'1 0.0
2014-Jul-14 02:33N 29°56' E 121°52'0 0.0
2014-Jul-14 00:29N 29°56' E 121°52'0 0.0
2014-Jul-13 23:29N 29°56' E 121°52'0 0.0
2014-Jul-13 22:23N 29°56' E 121°52'0 0.0
2014-Jul-13 20:29N 29°56' E 121°52'0 0.1
2014-Jul-13 18:33N 29°56' E 121°52'  

Dump ship's entire track history